Location: Ostrava
(49.8330°N, 18.2830°E)
Time: 07:23:59
(UTC+02:00)

NOAA 19 - Visible Passes

Search period start: 19 August 2017 00:00
Search period end: 29 August 2017 00:00
Orbit: 841 x 863 km, 99.1° (Epoch: 18 August)

Date Brightness Start Highest point End Pass type
(mag) Time Alt. Az. Time Alt. Az. Time Alt. Az.
19 Aug 7.2 03:34:29 10° NE 03:38:53 24° E 03:43:16 10° SE visible
20 Aug 7.5 03:23:19 10° NE 03:27:15 20° E 03:31:09 10° SE visible
20 Aug 5.2 05:03:01 10° NNE 05:08:30 73° WNW 05:13:57 10° SSW visible
21 Aug 7.7 03:12:17 10° NE 03:15:35 16° E 03:18:51 10° SE visible
21 Aug 5.2 04:51:30 10° NNE 04:57:00 88° WNW 05:02:29 10° SSW visible
22 Aug 7.8 03:01:32 10° ENE 03:03:53 13° E 03:06:15 10° ESE visible
22 Aug 5.4 04:40:00 10° NNE 04:45:30 77° ESE 04:50:59 10° SSW visible
23 Aug 5.7 04:28:31 10° NNE 04:33:58 63° ESE 04:39:23 10° S visible
24 Aug 6.0 04:17:04 10° NNE 04:22:25 51° E 04:27:44 10° S visible
25 Aug 6.4 04:05:40 10° NNE 04:10:50 41° E 04:16:01 10° SSE visible
26 Aug 6.7 03:54:17 10° NNE 03:59:15 34° E 04:04:12 10° SSE visible
27 Aug 7.0 03:42:59 10° NE 03:47:38 28° E 03:52:17 10° SSE visible
28 Aug 7.3 03:31:44 10° NE 03:36:01 23° E 03:40:16 10° SE visible
28 Aug 5.3 05:11:43 10° N 05:17:09 64° WNW 05:22:34 10° SSW visible
